DW4393 Weather Reports


Display with metric or nautical units.
time (UTC)temp
F
wind
direction
speed
MPH
gust
MPH
rain 1hr
in
rain 24hr
in
rain mn
in
humidity
%
barometer
mb
20260504193803 78 244 2.0 3.0 0.00 0.00 0.00 37 1014.9
20260504193303 78 268 1.0 3.0 0.00 0.00 0.00 34 1014.9
20260504191303 78 211 2.0 3.0 0.00 0.00 0.00 39 1015.3
20260504190803 77 221 0.0 2.0 0.00 0.00 0.00 40 1015.4
20260504184803 76 195 0.0 0.0 0.00 0.00 0.00 40 1015.7
20260504184303 76 195 0.0 1.0 0.00 0.00 0.00 38 1015.8
20260504183803 76 190 1.0 3.0 0.00 0.00 0.00 38 1015.9
20260504183303 76 197 1.0 3.0 0.00 0.00 0.00 40 1015.9
20260504181804 76 233 1.0 2.0 0.00 0.00 0.00 38 1016.1
20260504181304 75 309 1.0 2.0 0.00 0.00 0.00 45 1016.1
20260504180803 74 238 0.0 2.0 0.00 0.00 0.00 43 1016.2
20260504180303 73 247 0.0 5.0 0.00 0.00 0.00 41 1016.3
20260504174803 74 239 0.0 1.0 0.00 0.00 0.00 45 1016.6
20260504174303 74 215 2.0 3.0 0.00 0.00 0.00 41 1016.6
20260504173804 74 88 0.0 2.0 0.00 0.00 0.00 43 1016.6
20260504173304 73 198 0.0 2.0 0.00 0.00 0.00 45 1016.7
20260504171804 73 313 1.0 2.0 0.00 0.00 0.00 41 1017.0
20260504171303 73 349 1.0 2.0 0.00 0.00 0.00 40 1017.0
20260504170803 74 40 0.0 3.0 0.00 0.00 0.00 46 1017.1
20260504170304 74 43 1.0 3.0 0.00 0.00 0.00 42 1017.2
20260504160304 69 190 1.0 3.0 0.00 0.00 0.00 46 1017.9
20260504150803 66 194 0.0 1.0 0.00 0.00 0.00 55 1018.3
20260504150303 66 171 0.0 2.0 0.00 0.00 0.00 55 1018.3
20260504141304 62 176 0.0 0.0 0.00 0.00 0.00 63 1018.5
20260504140803 62 176 0.0 3.0 0.00 0.00 0.00 61 1018.5
20260504140304 61 179 1.0 2.0 0.00 0.00 0.00 61 1018.5
20260504130803 53 202 0.0 0.0 0.00 0.00 0.00 91 1018.6
20260504110304 41 202 0.0 0.0 0.00 0.00 0.00 93 1018.2
20260504081303 43 202 0.0 0.0 0.00 0.00 0.00 92 1018.1
20260504080804 43 202 0.0 0.0 0.00 0.00 0.00 92 1018.0
20260504080303 43 202 0.0 0.0 0.00 0.00 0.00 92 1018.0
20260504070304 44 202 0.0 0.0 0.00 0.00 0.00 91 1018.4
20260504044803 46 202 0.0 0.0 0.00 0.00 0.00 88 1018.6
20260504044304 46 202 0.0 0.0 0.00 0.00 0.00 88 1018.6
20260504043304 47 202 0.0 0.0 0.00 0.00 0.00 88 1018.5
20260504041804 47 202 0.0 0.0 0.00 0.00 0.00 87 1018.6
20260504041305 48 202 0.0 0.0 0.00 0.00 0.00 87 1018.5
20260504040822 48 202 0.0 0.0 0.00 0.00 0.00 86 1018.5
20260504040304 48 202 0.0 0.0 0.00 0.00 0.00 86 1018.6
20260504034804 49 202 0.0 0.0 0.00 0.00 0.00 85 1018.5
20260504034304 49 202 0.0 0.0 0.00 0.00 0.00 85 1018.5
20260504033804 49 202 0.0 0.0 0.00 0.00 0.00 84 1018.4
20260504031304 50 202 0.0 0.0 0.00 0.00 0.00 82 1018.6
20260504030804 50 202 0.0 0.0 0.00 0.00 0.00 82 1018.5
20260504030305 50 202 0.0 0.0 0.00 0.00 0.00 82 1018.3
20260504024804 51 202 0.0 0.0 0.00 0.00 0.00 80 1018.4
20260504024304 51 202 0.0 0.0 0.00 0.00 0.00 81 1018.3
20260504023804 51 202 0.0 0.0 0.00 0.00 0.00 80 1018.2
20260504023304 52 202 0.0 1.0 0.00 0.00 0.00 80 1018.1
20260504021304 53 202 0.0 0.0 0.00 0.00 0.00 78 1017.8
20260504020804 53 202 0.0 0.0 0.00 0.00 0.00 77 1017.8
20260504020307 53 202 0.0 0.0 0.00 0.00 0.00 76 1017.8
20260504014802 54 202 0.0 0.0 0.00 0.00 0.00 74 1017.6
20260504014303 54 202 0.0 0.0 0.00 0.00 0.00 74 1017.5
20260504013303 55 202 0.0 0.0 0.00 0.00 0.00 72 1017.4
20260504011803 55 202 0.0 0.0 0.00 0.00 0.00 70 1017.3
20260504011302 56 202 0.0 0.0 0.00 0.00 0.00 67 1017.3
20260504010303 56 202 0.0 0.0 0.00 0.00 0.00 65 1017.2
20260504004802 58 202 0.0 0.0 0.00 0.00 0.00 62 1017.0
20260504004303 59 202 0.0 0.0 0.00 0.00 0.00 61 1017.0
20260504003803 59 202 0.0 0.0 0.00 0.00 0.00 61 1017.0
20260504003302 60 202 0.0 0.0 0.00 0.00 0.00 59 1016.9
20260504001303 62 202 0.0 0.0 0.00 0.00 0.00 53 1016.8
20260504000803 62 202 0.0 0.0 0.00 0.00 0.00 52 1016.9
20260504000303 63 202 0.0 0.0 0.00 0.00 0.00 51 1016.7
20260503234803 64 202 0.0 0.0 0.00 0.00 0.00 46 1016.7
20260503233803 65 202 0.0 0.0 0.00 0.00 0.00 39 1016.7
20260503233302 66 202 0.0 0.0 0.00 0.00 0.00 40 1016.6
20260503231303 67 202 0.0 0.0 0.00 0.00 0.00 41 1016.7
20260503230803 67 202 0.0 0.0 0.00 0.00 0.00 41 1016.7
20260503230303 67 202 0.0 1.0 0.00 0.00 0.00 37 1016.7
20260503224803 68 175 0.0 0.0 0.00 0.00 0.00 39 1016.8
20260503224303 68 180 1.0 1.0 0.00 0.00 0.00 36 1016.7
20260503223803 68 40 0.0 1.0 0.00 0.00 0.00 38 1016.7
20260503223303 69 40 1.0 5.0 0.00 0.00 0.00 36 1016.7
20260503221303 68 183 1.0 3.0 0.00 0.00 0.00 34 1016.8
20260503220803 69 190 0.0 2.0 0.00 0.00 0.00 35 1016.8
20260503220302 69 234 0.0 3.0 0.00 0.00 0.00 40 1016.8
20260503214303 69 212 0.0 2.0 0.00 0.00 0.00 32 1016.9
20260503213803 70 175 1.0 3.0 0.00 0.00 0.00 35 1017.0
20260503213303 70 227 1.0 3.0 0.00 0.00 0.00 37 1017.0
20260503211803 70 201 1.0 3.0 0.00 0.00 0.00 34 1017.1
20260503210803 70 182 2.0 3.0 0.00 0.00 0.00 33 1017.1
20260503210303 70 219 1.0 6.0 0.00 0.00 0.00 35 1017.2
20260503204803 70 224 2.0 5.0 0.00 0.00 0.00 34 1017.2
20260503204303 70 250 1.0 3.0 0.00 0.00 0.00 38 1017.3
20260503203803 71 63 1.0 2.0 0.00 0.00 0.00 36 1017.4
20260503201803 71 166 1.0 2.0 0.00 0.00 0.00 36 1017.8
20260503201303 71 183 2.0 3.0 0.00 0.00 0.00 36 1017.9
20260503200803 71 216 2.0 3.0 0.00 0.00 0.00 36 1017.9
20260503200303 71 216 2.0 5.0 0.00 0.00 0.00 34 1018.0